Regional Weather Roundup
Issued by NWS

Home | Current Version | Previous Version | Graphics & Text | Print | Product List | Glossary On
Versions: 1 2 3 4 5 6 7 8 9 10 11 12 13 14 15 16 17 18 19 20 21 22 23 24 25 26 27 28 29 30 31 32 33 34 35 36 37 38 39 40 41 42 43 44 45 46 47 48 49 50
000
ASUS43 KOAX 211202
RWRNE

WEATHER ROUNDUP FOR NEBRASKA
NATIONAL WEATHER SERVICE OMAHA NE
600 AM CST SAT JAN 21 2017

NOTES: SATELLITE DATA IS BEING USED TO AUGMENT CLOUD COVER ABOVE
       12000 FEET.
       "FAIR" INDICATES FEW OR NO CLOUDS BELOW 12,000 FEET WITH NO
       SIGNIFICANT WEATHER AND/OR OBSTRUCTIONS TO VISIBILITY.

  * THESE STATIONS DO NOT REPORT WEATHER SUCH AS RAIN...SNOW OR FOG.

NEZ001>004-019>022-054>056-211300-
NEBRASKA PANHANDLE

CITY           SKY/WX    TMP DP  RH WIND       PRES   REMARKS
SCOTTSBLUFF    CLEAR     23  18  81 CALM      29.38F
6HR MIN TEMP:  22; 6HR MAX TEMP:  29;

ALLIANCE       CLEAR     19  16  88 W8        29.37S WCI   9
6HR MIN TEMP:  19; 6HR MAX TEMP:  30;

CHADRON        CLOUDY    31  24  75 SW6       29.38S WCI  25
6HR MIN TEMP:  30; 6HR MAX TEMP:  35;

SIDNEY         CLEAR     23  17  78 W7        29.38F WCI  15
6HR MIN TEMP:  23; 6HR MAX TEMP:  30;

$$

NEZ057>060-069>072-079>082-211300-
SOUTHWEST NEBRASKA

CITY           SKY/WX    TMP DP  RH WIND       PRES   REMARKS
NORTH PLATTE   CLEAR     24  22  91 NW6       29.39F FOG     WCI  17
6HR MIN TEMP:  24; 6HR MAX TEMP:  32;

IMPERIAL       CLEAR     29  23  78 W7        29.40F WCI  22
6HR MIN TEMP:  29; 6HR MAX TEMP:  35;

LEXINGTON      CLEAR     31  30  94 W3        29.40S
MCCOOK         CLEAR     28  28 100 SW8       29.42S WCI  20
6HR MIN TEMP:  28; 6HR MAX TEMP:  35;

OGALLALA       CLEAR     26  25  94 W7        29.40S WCI  19
$$

NEZ005>010-023>029-035>040-094-211300-
NORTH CENTRAL NEBRASKA

CITY           SKY/WX    TMP DP  RH WIND       PRES   REMARKS
VALENTINE      CLOUDY    35  30  82 W6        29.35S WCI  30
6HR MIN TEMP:  28; 6HR MAX TEMP:  35;

AINSWORTH      CLOUDY    35  33  92 W8        29.35R WCI  28
BROKEN BOW     CLOUDY    36  33  89 NW5       29.36F WCI  32
6HR MIN TEMP:  35; 6HR MAX TEMP:  37;

O`NEILL        PTCLDY    32  31  97 W6        29.36S WCI  26
ORD            CLOUDY    34  31  88 CALM      29.37R
6HR MIN TEMP:  34; 6HR MAX TEMP:  36;

THEDFORD       CLOUDY    32  31  96 W5        29.37S WCI  27
$$

NEZ041-046>049-061>064-073>077-083>087-211300-
SOUTH CENTRAL NEBRASKA

CITY           SKY/WX    TMP DP  RH WIND       PRES   REMARKS
GRAND ISLAND   CLOUDY    33  33 100 W8        29.39R WCI  26
6HR MIN TEMP:  33; 6HR MAX TEMP:  37;

AURORA         PTCLDY    33  33 100 W8        29.39R WCI  25
HASTINGS       CLOUDY    34  32  92 W7        29.41R WCI  28
6HR MIN TEMP:  34; 6HR MAX TEMP:  37;

HEBRON         CLEAR     33  33 100 W7        29.43R WCI  27
HOLDREGE       CLEAR     33  32  94 W8        29.41S WCI  27
KEARNEY *      PTCLDY    34 -15  12 W7        29.40S WCI  28
YORK           PTCLDY    32  32 100 W7        29.38S WCI  26
$$

NEZ011>018-030>034-042>045-211300-
NORTHEAST NEBRASKA

CITY           SKY/WX    TMP DP  RH WIND       PRES   REMARKS
NORFOLK        CLOUDY    33  32  96 SW9       29.35S FOG     WCI  25
6HR MIN TEMP:  32; 6HR MAX TEMP:  38;

ALBION         CLOUDY   N/A N/A N/A NW5       29.38R
BLAIR          FOG       39  38  97 SW6       29.37R VSB 1/4 WCI  35
FREMONT        CLEAR     36  36 100 CALM      29.38S FOG
TEKAMAH        FOG       36  35  96 S3        29.37R VSB 1/2
6HR MIN TEMP:  35; 6HR MAX TEMP:  38; 6HR PCP: TRACE;

WAYNE          CLOUDY    37  37  98 SW3       29.35S FOG
$$

NEZ050>053-065>068-078-088>093-211300-
SOUTHEAST NEBRASKA

CITY           SKY/WX    TMP DP  RH WIND       PRES   REMARKS
LINCOLN        FOG       36  36 100 S3        29.39F VSB 1
6HR MIN TEMP:  36; 6HR MAX TEMP:  41;

OMAHA EPPLEY   CLOUDY    41  38  89 S6        29.38S FOG
6HR MIN TEMP:  40; 6HR MAX TEMP:  41; 6HR PCP:  0.01;

BEATRICE       FOG       35  35 100 SW8       29.43R VSB 1/2 WCI  29
FALLS CITY     FOG       41  41 100 SW9       29.42R VSB 1
6HR MIN TEMP:  39; 6HR MAX TEMP:  45;

NEBRASKA CITY  FOG       39  39 100 W9        29.40R VSB 1/4 WCI  33
PLATTSMOUTH    CLOUDY    40  38  93 SW7       29.39R FOG     WCI  35
$$

NEZ044-045-051>053-067-211300-
OMAHA AREA

CITY           SKY/WX    TMP DP  RH WIND       PRES   REMARKS
OMAHA EPPLEY   CLOUDY    41  38  89 S6        29.38S FOG
6HR MIN TEMP:  40; 6HR MAX TEMP:  41; 6HR PCP:  0.01;

BLAIR          FOG       39  38  97 SW6       29.37R VSB 1/4 WCI  35
FREMONT        CLEAR     36  36 100 CALM      29.38S FOG
MILLARD        CLOUDY    42  41  97 CALM      29.38S FOG
OFFUTT AFB     CLOUDY    39  39 100 W5        29.38S FOG
PLATTSMOUTH    CLOUDY    40  38  93 SW7       29.39R FOG     WCI  35
WAHOO          FAIR      36  35  97 CALM      29.38S FOG
$$



USA.gov is the U.S. government's official web portal to all federal, state and local government web resources and services.